TimeMST,TemperatureF,Dew PointF,Humidity,Sea Level PressureIn,VisibilityMPH,Wind Direction,Wind SpeedMPH,Gust SpeedMPH,PrecipitationIn,Events,Conditions,WindDirDegrees,DateUTC
12:51 AM,91.9,62.1,37,29.76,10.0,ESE,4.6,-,N/A,,Mostly Cloudy,110,2013-08-02 07:51:00
1:51 AM,91.9,62.1,37,29.75,10.0,ENE,4.6,-,N/A,,Mostly Cloudy,70,2013-08-02 08:51:00
2:51 AM,90.0,62.1,39,29.75,10.0,East,5.8,-,N/A,,Mostly Cloudy,100,2013-08-02 09:51:00
3:51 AM,89.1,63.0,42,29.75,10.0,East,8.1,-,N/A,,Mostly Cloudy,100,2013-08-02 10:51:00
4:51 AM,89.1,63.0,42,29.75,10.0,ESE,5.8,-,N/A,,Mostly Cloudy,110,2013-08-02 11:51:00
5:51 AM,88.0,63.0,43,29.78,10.0,East,6.9,-,N/A,,Mostly Cloudy,100,2013-08-02 12:51:00
6:51 AM,89.1,64.0,43,29.80,10.0,ESE,6.9,-,N/A,,Mostly Cloudy,120,2013-08-02 13:51:00
7:51 AM,91.0,62.1,38,29.81,10.0,SSE,5.8,-,N/A,,Mostly Cloudy,150,2013-08-02 14:51:00
8:51 AM,93.9,53.1,25,29.83,10.0,Variable,6.9,-,N/A,,Mostly Cloudy,0,2013-08-02 15:51:00
9:51 AM,97.0,48.0,19,29.83,10.0,SSE,10.4,-,N/A,,Mostly Cloudy,150,2013-08-02 16:51:00
10:51 AM,99.0,51.1,20,29.83,10.0,SSE,6.9,-,N/A,,Mostly Cloudy,160,2013-08-02 17:51:00
11:51 AM,102.9,46.9,15,29.81,10.0,Variable,3.5,-,N/A,,Mostly Cloudy,0,2013-08-02 18:51:00
12:51 PM,105.1,51.1,16,29.78,10.0,SSE,10.4,17.3,N/A,,Scattered Clouds,150,2013-08-02 19:51:00
1:51 PM,104.0,53.1,18,29.75,10.0,WNW,4.6,-,N/A,,Mostly Cloudy,300,2013-08-02 20:51:00
2:51 PM,106.0,53.1,17,29.73,10.0,South,11.5,16.1,N/A,,Mostly Cloudy,170,2013-08-02 21:51:00
3:51 PM,105.1,52.0,17,29.73,10.0,South,8.1,-,N/A,,Mostly Cloudy,170,2013-08-02 22:51:00
4:51 PM,104.0,54.0,19,29.72,10.0,ESE,11.5,-,N/A,,Mostly Cloudy,110,2013-08-02 23:51:00
5:51 PM,102.9,57.9,23,29.72,10.0,SE,16.1,-,N/A,,Mostly Cloudy,130,2013-08-03 00:51:00
6:51 PM,100.9,57.9,24,29.74,10.0,SE,11.5,-,N/A,,Mostly Cloudy,140,2013-08-03 01:51:00
7:51 PM,98.1,61.0,29,29.74,10.0,SE,12.7,-,N/A,,Mostly Cloudy,140,2013-08-03 02:51:00
8:51 PM,96.1,62.1,32,29.78,10.0,SSE,12.7,-,N/A,,Mostly Cloudy,150,2013-08-03 03:51:00
9:51 PM,93.9,61.0,33,29.80,10.0,SE,9.2,-,N/A,,Mostly Cloudy,130,2013-08-03 04:51:00
10:51 PM,93.0,62.1,36,29.80,10.0,East,8.1,-,N/A,,Mostly Cloudy,100,2013-08-03 05:51:00
11:51 PM,93.0,61.0,34,29.79,10.0,SE,6.9,-,N/A,,Mostly Cloudy,130,2013-08-03 06:51:00